Time,TemperatureF,DewpointF,PressureIn,WindDirection,WindDirectionDegrees,WindSpeedMPH,WindSpeedGustMPH,Humidity,HourlyPrecipIn,Conditions,Clouds,dailyrainin,SoftwareType,DateUTC
2013-01-13 00:02:00,10.2,4.0,30.00,NNW,332,3.0,9.0,75,0.00,,,0.00,weatherlink.com 1.10,2013-01-13 06:02:00,
2013-01-13 00:18:00,10.1,4.0,30.00,NNW,334,0.0,9.0,76,0.00,,,0.00,weatherlink.com 1.10,2013-01-13 06:18:00,
2013-01-13 00:33:00,9.9,4.0,30.00,NW,325,3.0,12.0,76,0.00,,,0.00,weatherlink.com 1.10,2013-01-13 06:33:00,
2013-01-13 00:48:00,9.7,4.0,30.01,NW,326,1.0,8.0,76,0.00,,,0.00,weatherlink.com 1.10,2013-01-13 06:48:00,
2013-01-13 01:03:00,9.5,3.0,30.02,NW,325,3.0,8.0,76,0.00,,,0.00,weatherlink.com 1.10,2013-01-13 07:03:00,
2013-01-13 01:18:00,9.4,4.0,30.01,NNW,327,4.0,9.0,77,0.00,,,0.00,weatherlink.com 1.10,2013-01-13 07:18:00,
2013-01-13 01:33:00,9.4,4.0,30.00,NW,321,2.0,7.0,78,0.00,,,0.00,weatherlink.com 1.10,2013-01-13 07:33:00,
2013-01-13 01:48:00,9.2,4.0,30.00,NW,315,1.0,6.0,78,0.00,,,0.00,weatherlink.com 1.10,2013-01-13 07:48:00,
2013-01-13 02:03:00,8.9,3.0,30.00,NW,317,0.0,6.0,77,0.00,,,0.00,weatherlink.com 1.10,2013-01-13 08:03:00,
2013-01-13 02:18:00,8.6,3.0,30.01,NNE,14,0.0,6.0,77,0.00,,,0.00,weatherlink.com 1.10,2013-01-13 08:18:00,
2013-01-13 02:33:00,8.5,3.0,30.02,NNW,344,0.0,8.0,78,0.00,,,0.00,weatherlink.com 1.10,2013-01-13 08:33:00,
2013-01-13 02:48:00,8.6,3.0,30.03,NW,325,2.0,9.0,78,0.00,,,0.00,weatherlink.com 1.10,2013-01-13 08:48:00,
2013-01-13 03:03:00,8.7,3.0,30.02,NNW,338,0.0,10.0,78,0.00,,,0.00,weatherlink.com 1.10,2013-01-13 09:03:00,
2013-01-13 03:18:00,8.7,3.0,30.03,NNW,346,2.0,6.0,79,0.00,,,0.00,weatherlink.com 1.10,2013-01-13 09:18:00,
2013-01-13 03:33:00,8.9,4.0,30.02,NNW,348,4.0,7.0,79,0.00,,,0.00,weatherlink.com 1.10,2013-01-13 09:33:00,
2013-01-13 03:48:00,9.2,4.0,30.02,NW,324,1.0,6.0,79,0.00,,,0.00,weatherlink.com 1.10,2013-01-13 09:48:00,
2013-01-13 04:03:00,9.5,4.0,30.01,WNW,300,4.0,10.0,79,0.00,,,0.00,weatherlink.com 1.10,2013-01-13 10:03:00,
2013-01-13 04:18:00,9.6,4.0,30.01,NNW,329,5.0,12.0,79,0.00,,,0.00,weatherlink.com 1.10,2013-01-13 10:18:00,
2013-01-13 04:34:00,9.6,4.0,30.02,East,82,1.0,10.0,78,0.00,,,0.00,weatherlink.com 1.10,2013-01-13 10:34:00,
2013-01-13 04:49:00,9.0,3.0,30.02,NE,42,1.0,6.0,75,0.00,,,0.00,weatherlink.com 1.10,2013-01-13 10:49:00,
2013-01-13 05:04:00,8.5,3.0,30.03,North,10,1.0,4.0,77,0.00,,,0.00,weatherlink.com 1.10,2013-01-13 11:04:00,
2013-01-13 05:19:00,8.1,3.0,30.05,NNW,348,0.0,3.0,78,0.00,,,0.00,weatherlink.com 1.10,2013-01-13 11:19:00,
2013-01-13 05:34:00,7.8,2.0,30.05,NNE,28,2.0,5.0,78,0.00,,,0.00,weatherlink.com 1.10,2013-01-13 11:34:00,
2013-01-13 05:49:00,7.7,2.0,30.06,NNW,331,1.0,3.0,78,0.00,,,0.00,weatherlink.com 1.10,2013-01-13 11:49:00,
2013-01-13 06:04:00,7.5,2.0,30.05,NW,317,0.0,5.0,78,0.00,,,0.00,weatherlink.com 1.10,2013-01-13 12:04:00,
2013-01-13 06:19:00,7.3,2.0,30.06,NW,323,0.0,3.0,79,0.00,,,0.00,weatherlink.com 1.10,2013-01-13 12:19:00,
2013-01-13 06:38:00,7.2,2.0,30.06,NW,323,0.0,5.0,79,0.00,,,0.00,weatherlink.com 1.10,2013-01-13 12:38:00,
2013-01-13 06:49:00,7.1,2.0,30.07,NW,323,0.0,4.0,80,0.00,,,0.00,weatherlink.com 1.10,2013-01-13 12:49:00,
2013-01-13 07:05:00,7.0,2.0,30.08,NNW,329,0.0,4.0,80,0.00,,,0.00,weatherlink.com 1.10,2013-01-13 13:05:00,
2013-01-13 07:20:00,6.9,2.0,30.08,NNW,329,0.0,1.0,80,0.00,,,0.00,weatherlink.com 1.10,2013-01-13 13:20:00,
2013-01-13 07:35:00,6.8,2.0,30.09,NNW,329,0.0,3.0,80,0.00,,,0.00,weatherlink.com 1.10,2013-01-13 13:35:00,
2013-01-13 07:50:00,6.8,2.0,30.10,NNW,329,0.0,2.0,81,0.00,,,0.00,weatherlink.com 1.10,2013-01-13 13:50:00,
2013-01-13 08:05:00,6.8,2.0,30.11,NNW,329,1.0,4.0,81,0.00,,,0.00,weatherlink.com 1.10,2013-01-13 14:05:00,
2013-01-13 08:23:00,6.9,3.0,30.11,NNW,329,0.0,3.0,82,0.00,,,0.00,weatherlink.com 1.10,2013-01-13 14:23:00,
2013-01-13 08:35:00,7.4,3.0,30.12,NNW,335,3.0,4.0,80,0.00,,,0.00,weatherlink.com 1.10,2013-01-13 14:35:00,
2013-01-13 08:50:00,7.9,3.0,30.12,North,11,0.0,4.0,79,0.00,,,0.00,weatherlink.com 1.10,2013-01-13 14:50:00,
2013-01-13 09:06:00,8.8,3.0,30.12,NNW,340,1.0,7.0,78,0.00,,,0.00,weatherlink.com 1.10,2013-01-13 15:06:00,
2013-01-13 09:20:00,9.6,4.0,30.13,WNW,297,0.0,5.0,77,0.00,,,0.00,weatherlink.com 1.10,2013-01-13 15:20:00,
2013-01-13 09:35:00,10.6,4.0,30.12,WNW,296,5.0,6.0,75,0.00,,,0.00,weatherlink.com 1.10,2013-01-13 15:35:00,
2013-01-13 09:51:00,11.3,5.0,30.12,NNW,338,2.0,8.0,74,0.00,,,0.00,weatherlink.com 1.10,2013-01-13 15:51:00,
2013-01-13 10:06:00,12.0,5.0,30.12,NW,323,1.0,9.0,73,0.00,,,0.00,weatherlink.com 1.10,2013-01-13 16:06:00,
2013-01-13 10:21:00,12.6,6.0,30.12,NNW,327,2.0,8.0,73,0.00,,,0.00,weatherlink.com 1.10,2013-01-13 16:21:00,
2013-01-13 10:35:00,13.4,6.0,30.12,NNW,328,5.0,10.0,71,0.00,,,0.00,weatherlink.com 1.10,2013-01-13 16:35:00,
2013-01-13 10:50:00,14.3,6.0,30.12,NW,304,0.0,10.0,69,0.00,,,0.00,weatherlink.com 1.10,2013-01-13 16:50:00,
2013-01-13 11:05:00,15.0,5.0,30.12,WNW,289,0.0,11.0,66,0.00,,,0.00,weatherlink.com 1.10,2013-01-13 17:05:00,
2013-01-13 11:23:00,15.9,6.0,30.11,WNW,292,7.0,8.0,66,0.00,,,0.00,weatherlink.com 1.10,2013-01-13 17:23:00,
2013-01-13 11:36:00,16.7,7.0,30.11,NNW,332,2.0,10.0,66,0.00,,,0.00,weatherlink.com 1.10,2013-01-13 17:36:00,
2013-01-13 11:51:00,17.0,7.0,30.11,North,11,6.0,12.0,64,0.00,,,0.00,weatherlink.com 1.10,2013-01-13 17:51:00,
2013-01-13 12:06:00,18.2,9.0,30.11,WNW,292,3.0,9.0,66,0.00,,,0.00,weatherlink.com 1.10,2013-01-13 18:06:00,
2013-01-13 12:21:00,18.7,6.0,30.10,NNW,327,3.0,11.0,58,0.00,,,0.00,weatherlink.com 1.10,2013-01-13 18:21:00,
2013-01-13 12:36:00,19.5,7.0,30.10,North,360,3.0,7.0,58,0.00,,,0.00,weatherlink.com 1.10,2013-01-13 18:36:00,
2013-01-13 12:51:00,19.9,6.0,30.10,NW,325,3.0,11.0,55,0.00,,,0.00,weatherlink.com 1.10,2013-01-13 18:51:00,
2013-01-13 13:06:00,20.3,5.0,30.09,WNW,290,0.0,9.0,51,0.00,,,0.00,weatherlink.com 1.10,2013-01-13 19:06:00,
2013-01-13 13:21:00,20.0,6.0,30.09,NNW,329,4.0,12.0,54,0.00,,,0.00,weatherlink.com 1.10,2013-01-13 19:21:00,
2013-01-13 13:36:00,20.7,7.0,30.09,NNW,344,7.0,11.0,55,0.00,,,0.00,weatherlink.com 1.10,2013-01-13 19:36:00,
2013-01-13 13:51:00,21.0,7.0,30.09,WNW,298,2.0,11.0,54,0.00,,,0.00,weatherlink.com 1.10,2013-01-13 19:51:00,
2013-01-13 14:06:00,21.3,7.0,30.09,NNW,329,0.0,9.0,54,0.00,,,0.00,weatherlink.com 1.10,2013-01-13 20:06:00,
2013-01-13 14:21:00,22.0,8.0,30.09,WNW,286,1.0,8.0,54,0.00,,,0.00,weatherlink.com 1.10,2013-01-13 20:21:00,
2013-01-13 14:37:00,22.5,8.0,30.09,NNW,342,4.0,8.0,55,0.00,,,0.00,weatherlink.com 1.10,2013-01-13 20:37:00,
2013-01-13 14:52:00,22.5,7.0,30.10,NNW,328,4.0,7.0,52,0.00,,,0.00,weatherlink.com 1.10,2013-01-13 20:52:00,
2013-01-13 15:07:00,22.2,6.0,30.11,NNW,347,5.0,9.0,51,0.00,,,0.00,weatherlink.com 1.10,2013-01-13 21:07:00,
2013-01-13 15:22:00,22.4,7.0,30.12,WNW,301,2.0,8.0,52,0.00,,,0.00,weatherlink.com 1.10,2013-01-13 21:22:00,
2013-01-13 15:37:00,22.8,7.0,30.12,NNW,333,1.0,6.0,51,0.00,,,0.00,weatherlink.com 1.10,2013-01-13 21:37:00,
2013-01-13 15:52:00,22.7,7.0,30.12,NNW,331,4.0,9.0,52,0.00,,,0.00,weatherlink.com 1.10,2013-01-13 21:52:00,
2013-01-13 16:07:00,22.3,7.0,30.12,WNW,290,0.0,7.0,52,0.00,,,0.00,weatherlink.com 1.10,2013-01-13 22:07:00,
2013-01-13 16:23:00,21.7,7.0,30.13,NNW,330,4.0,8.0,53,0.00,,,0.00,weatherlink.com 1.10,2013-01-13 22:23:00,
2013-01-13 16:38:00,21.1,7.0,30.14,NW,320,0.0,8.0,55,0.00,,,0.00,weatherlink.com 1.10,2013-01-13 22:38:00,
2013-01-13 16:52:00,20.0,7.0,30.14,NNW,344,1.0,9.0,57,0.00,,,0.00,weatherlink.com 1.10,2013-01-13 22:52:00,
2013-01-13 17:07:00,19.2,7.0,30.15,NW,305,0.0,4.0,59,0.00,,,0.00,weatherlink.com 1.10,2013-01-13 23:07:00,
2013-01-13 17:23:00,18.6,7.0,30.15,NW,305,0.0,0.0,61,0.00,,,0.00,weatherlink.com 1.10,2013-01-13 23:23:00,
2013-01-13 17:38:00,18.2,7.0,30.15,NNW,329,0.0,3.0,62,0.00,,,0.00,weatherlink.com 1.10,2013-01-13 23:38:00,
2013-01-13 17:53:00,17.7,7.0,30.15,NNW,329,0.0,1.0,63,0.00,,,0.00,weatherlink.com 1.10,2013-01-13 23:53:00,
2013-01-13 18:07:00,17.4,7.0,30.15,NNW,329,0.0,1.0,64,0.00,,,0.00,weatherlink.com 1.10,2013-01-14 00:07:00,
2013-01-13 18:23:00,17.0,7.0,30.15,NNW,329,0.0,0.0,65,0.00,,,0.00,weatherlink.com 1.10,2013-01-14 00:23:00,
2013-01-13 18:38:00,16.6,7.0,30.16,NNW,329,0.0,1.0,66,0.00,,,0.00,weatherlink.com 1.10,2013-01-14 00:38:00,
2013-01-13 18:53:00,16.3,7.0,30.16,NNW,332,0.0,2.0,66,0.00,,,0.00,weatherlink.com 1.10,2013-01-14 00:53:00,
2013-01-13 19:08:00,15.9,7.0,30.16,NNW,332,0.0,0.0,67,0.00,,,0.00,weatherlink.com 1.10,2013-01-14 01:08:00,
2013-01-13 19:23:00,15.3,7.0,30.17,NNW,332,0.0,0.0,70,0.00,,,0.00,weatherlink.com 1.10,2013-01-14 01:23:00,
2013-01-13 19:38:00,14.5,7.0,30.18,NNW,332,0.0,0.0,71,0.00,,,0.00,weatherlink.com 1.10,2013-01-14 01:38:00,
2013-01-13 19:54:00,13.9,7.0,30.18,NNW,332,0.0,0.0,74,0.00,,,0.00,weatherlink.com 1.10,2013-01-14 01:54:00,
2013-01-13 20:09:00,13.4,7.0,30.18,NNW,332,0.0,0.0,74,0.00,,,0.00,weatherlink.com 1.10,2013-01-14 02:09:00,
2013-01-13 20:24:00,13.2,7.0,30.18,NNW,332,0.0,0.0,75,0.00,,,0.00,weatherlink.com 1.10,2013-01-14 02:24:00,
2013-01-13 20:39:00,12.7,7.0,30.18,NNW,332,0.0,0.0,77,0.00,,,0.00,weatherlink.com 1.10,2013-01-14 02:39:00,
2013-01-13 20:54:00,12.5,7.0,30.18,NNW,332,0.0,0.0,77,0.00,,,0.00,weatherlink.com 1.10,2013-01-14 02:54:00,
2013-01-13 21:09:00,12.1,7.0,30.19,NNW,332,0.0,0.0,79,0.00,,,0.00,weatherlink.com 1.10,2013-01-14 03:09:00,
2013-01-13 21:24:00,12.1,7.0,30.19,NNW,332,0.0,0.0,79,0.00,,,0.00,weatherlink.com 1.10,2013-01-14 03:24:00,
2013-01-13 21:39:00,12.2,7.0,30.19,NNW,332,0.0,0.0,78,0.00,,,0.00,weatherlink.com 1.10,2013-01-14 03:39:00,
2013-01-13 21:54:00,12.6,7.0,30.19,NNW,332,0.0,0.0,77,0.00,,,0.00,weatherlink.com 1.10,2013-01-14 03:54:00,
2013-01-13 22:09:00,12.3,6.0,30.19,NNW,332,0.0,0.0,77,0.00,,,0.00,weatherlink.com 1.10,2013-01-14 04:09:00,
2013-01-13 22:24:00,11.9,6.0,30.20,NNW,332,0.0,0.0,77,0.00,,,0.00,weatherlink.com 1.10,2013-01-14 04:24:00,
2013-01-13 22:39:00,11.5,6.0,30.20,NNW,332,0.0,0.0,79,0.00,,,0.00,weatherlink.com 1.10,2013-01-14 04:39:00,
2013-01-13 22:54:00,11.1,6.0,30.21,NNW,332,0.0,0.0,80,0.00,,,0.00,weatherlink.com 1.10,2013-01-14 04:54:00,
2013-01-13 23:10:00,10.7,6.0,30.22,NNW,332,0.0,0.0,80,0.00,,,0.00,weatherlink.com 1.10,2013-01-14 05:10:00,
2013-01-13 23:25:00,10.3,6.0,30.22,NNW,332,0.0,0.0,81,0.00,,,0.00,weatherlink.com 1.10,2013-01-14 05:25:00,
2013-01-13 23:40:00,10.0,6.0,30.22,NNW,332,0.0,0.0,82,0.00,,,0.00,weatherlink.com 1.10,2013-01-14 05:40:00,
2013-01-13 23:54:00,9.6,5.0,30.23,NNW,332,0.0,0.0,83,0.00,,,0.00,weatherlink.com 1.10,2013-01-14 05:54:00,